This is the latest recevied weather packets stored in our database for station/object NO9B. If no packets are shown the sender has not sent any weather packets the latest 1 day(s).
| Time | Temp. | Humidity | Pressure | Rain* | Wind** | Luminosity | Snow |
|---|---|---|---|---|---|---|---|
| 1778063928 | 0° C | 85% | 1012.4 hPa | 0 mm | - | 1 W/m² | - |
| 1778062717 | 0° C | 84% | 1012.4 hPa | 0 mm | - | 0 W/m² | - |
| 1778061204 | 0.56° C | 83% | 1012.5 hPa | 0 mm | - | 0 W/m² | - |
| 1778060901 | 0.56° C | 82% | 1012.5 hPa | 0 mm | - | 0 W/m² | - |
| 1778060600 | 0.56° C | 81% | 1012.3 hPa | 0 mm | - | 0 W/m² | - |
| 1778059994 | 0.56° C | 81% | 1012.7 hPa | 0 mm | - | 0 W/m² | - |
| 1778059087 | 1.11° C | 79% | 1012.5 hPa | 0 mm | - | 0 W/m² | - |
| 1778058179 | 1.11° C | 80% | 1012.5 hPa | 0 mm | - | 0 W/m² | - |
| 1778056965 | 1.11° C | 80% | 1012.4 hPa | 0 mm | - | 0 W/m² | - |
| 1778056662 | 1.11° C | 81% | 1012.3 hPa | 0 mm | - | 0 W/m² | - |
| 1778056057 | 1.67° C | 81% | 1012.4 hPa | 0 mm | - | 0 W/m² | - |
| 1778055752 | 1.67° C | 81% | 1011.9 hPa | 0 mm | - | 0 W/m² | - |
| 1778055148 | 1.67° C | 80% | 1012.1 hPa | 0 mm | - | 0 W/m² | - |
| 1778053936 | 2.22° C | 78% | 1011.9 hPa | 0 mm | - | 0 W/m² | - |
| 1778053634 | 2.22° C | 78% | 1012.1 hPa | 0 mm | - | 0 W/m² | - |
| 1778053028 | 2.22° C | 76% | 1012 hPa | 0 mm | - | 0 W/m² | - |
| 1778052726 | 2.78° C | 75% | 1011.8 hPa | 0 mm | - | 0 W/m² | - |
| 1778052422 | 2.78° C | 72% | 1012 hPa | 0 mm | - | 0 W/m² | - |
| 1778052120 | 2.78° C | 72% | 1012 hPa | 0 mm | - | 0 W/m² | - |
| 1778051817 | 2.78° C | 71% | 1012 hPa | 0 mm | - | 0 W/m² | - |
| 1778051515 | 2.78° C | 69% | 1012 hPa | 0 mm | - | 0 W/m² | - |
| 1778050607 | 3.33° C | 68% | 1011.9 hPa | 0 mm | - | 0 W/m² | - |
| 1778050303 | 3.89° C | 68% | 1012 hPa | 0 mm | - | 0 W/m² | - |
| 1778050000 | 3.89° C | 68% | 1012.2 hPa | 0 mm | - | 0 W/m² | - |
| 1778049394 | 3.89° C | 66% | 1012 hPa | 0 mm | - | 0 W/m² | - |
* Rain latest hour (hover to see other rain measurements)
** Current wind speed in m/s (hover to see current wind gust speed)